Location: Grassland Mountain Observatory
(35.7543°N, 82.8038°W)
Time: 06:47:28
(UTC-05:00)

Envisat - Pass Details

Date: 29 November 2021
Orbit: 764 x 766 km, 98.2° (Epoch: 20 January)

Event Time Altitude Azimuth Distance (km) Brightness Sun altitude
Rises 05:20:56 0° 14° (NNE) 3,235 6.3 -23.9°
Reaches altitude 10° 05:23:16 10° 16° (NNE) 2,305 5.5 -23.5°
Maximum altitude 05:28:20 74° 102° (ESE) 798 3.1 -22.5°
Drops below altitude 10° 05:33:23 10° 187° (S) 2,289 5.5 -21.5°
Sets 05:35:40 0° 189° (S) 3,211 6.3 -21.0°
